Symphonie 2

operational
NORAD ID: 8132 Int'l Des: 1975-077 Owner: CNES/DFVLR Country: F
HEOCIRCULAR

Über Symphonie 2

Beschreibung wird geladen...

Live-Position

3D-Globus wird geladen...

Nächste Überflüge

Höhenverlauf

Altitude vs Time

uPlot chart will show altitude changes over time

Zweizeiliger Elementsatz

1 8132U 75077A 26061.13264500 .00000099 00000-0 00000+0 0 9993
2 8132 4.3144 275.9610 0007212 41.3683 110.9087 0.99967219141384
Epoch: 2. März 2026 • Age: 43 hours

Aktueller Status

Höhe 35841.7 km
Geschwindigkeit 3.07 km/s
Subsatellitenpunkt 1.95°N, 141.29°W
Typ other

Große Konstellationen

Loading constellations...